Location: Bodest
(46.3000°N, 22.5667°E)
Time: 12:00:27
(UTC+00:00)

Cosmos 1626 Rocket - Pass Details

Date: 23 May 2022
Orbit: 602 x 631 km, 82.5° (Epoch: 01 July)

Event Time Altitude Azimuth Distance (km) Brightness Sun altitude
Rises 01:24:06 0° 133° (SE) 2,899 7.0 -12.0°
Reaches altitude 10° 01:27:57 10° 98° (E) 1,993 6.6 -11.6°
Maximum altitude 01:29:13 11° 82° (E) 1,919 6.9 -11.4°
Drops below altitude 10° 01:30:28 10° 65° (ENE) 1,992 7.4 -11.3°
Sets 01:34:19 0° 31° (NNE) 2,897 8.8 -10.8°
